Showing default

YAOGAN-39 03B, 57988

Orbit data source: Space-Track

YAOGAN-39 03B, 57988 is a payload satellite owned by PLA GAD (CN) in LEO that was launched on Thu, 05 Oct 2023 UTC via a CHANG ZHENG 2D launch vehicle from the Xichang Space Center, China (XSC). Payload-class satellites include a variety of spacecraft equipped with specific instruments for various scientific and technological missions. These include communications satellites like Starlink; space stations such as the ISS; scientific satellites like the Hubble; Earth observation satellites from companies like Planet Labs, Umbra, and HawkEye 360; GPS; miniature CubeSats for education and research; and military/defense satellites.

Loading next visibility...
Identifier
57988, 2023-152C
Orbit
LEO
Country
Flag of CNCN / PRC
Related business
Manufacturer
SAST
Mission
Operational Defense Sigint
Bus & Motor
Unknown
Mass
~300 kg wet, ~300 kg dry
Launch date (UTC)
2023-10-05 (3 years ago)
Launch vehicle
CHANG ZHENG 2D
Launch site
Xichang Space Center, China (XSC)
Object type
Payload
Rocket body
Debris
Shape & HBR
Box + 2 Pan, 2.5 m
Radar Cross Section
11.063 m², Large (>1 m²)

Expand to show TLE details & history
Last TLE update: 21 hours ago

TLE from 21 hours ago
0 YAOGAN-39 03B
1 57988U 23152C   26172.54386690  .00004149  00000-0  20897-3 0  9996
2 57988  34.9899 268.9997 0027492 264.2822  95.4755 15.16296028150855
Epoch: 2026-06-21T13:03Z
TLE epoch observation values (Epoch: 2026-06-21T13:03:10.100Z)
Latitude
-0.00003°
Longitude
163.46496°
Altitude
517.816 km
Speed
7.606 km/s
True Right ascension
17h 55m 59s
True Declination
0° 00' 00"
Sunlit
Object was in full shadow at epoch
Visualization orbit readout
Latitude
Unknown
Longitude
Unknown
Altitude
Unknown
Speed
Unknown
Apparent Right ascension
Unknown
Apparent Declination
Unknown
Sunlit
N/A
Visualization observer readout
Local Sidereal Time
21:33:07
Azimuth
Unknown
Elevation
Unknown
Doppler factor
Unknown
Orbital elements
Apogee altitude
539.254 km
Perigee altitude
501.324 km
Semi-major axis
6,898.426 km
Eccentricity
0.00275
Inclination
34.9899°
RAAN
268.9997°
Arg. of periapsis
264.2822°
True anomaly
95.78899°
Mean anomaly
95.4755°
Eccentric anomaly
95.63226°
Mean motion
3.78807 °/min
Orbital period
95.04 mins
BSTAR
0.00020897
Loading maneuver chart data...
Computing Atmospheric mass density...
Loading historical data...
Loading historical data...
Loading historical data...
Loading historical data...
Loading historical data...
Loading historical data...
Loading historical data...
Other satellites on launch #152 in the year 2023 (2023-10-05 UTC)

Documentation

Showing up to 5 results
|